| time (UTC) | temp F | wind direction | speed MPH | gust MPH | rain 1hr in | rain 24hr in | rain mn in | humidity % | barometer mb |
| 20260506051048 | 50 | 270 | 1.0 | 5.0 | 0.00 | 0.00 | 0.00 | 58 | 1006.3 |
| 20260506050549 | 50 | 314 | 1.0 | 5.0 | 0.00 | 0.00 | 0.00 | 58 | 1006.3 |
| 20260506045023 | 50 | 277 | 1.0 | 3.0 | 0.00 | 0.00 | 0.00 | 58 | 1006.1 |
| 20260506044518 | 51 | 262 | 1.0 | 3.0 | 0.00 | 0.00 | 0.00 | 58 | 1006.4 |
| 20260506044005 | 51 | 261 | 0.0 | 2.0 | 0.00 | 0.00 | 0.00 | 58 | 1006.4 |
| 20260506043505 | 51 | 257 | 0.0 | 3.0 | 0.00 | 0.00 | 0.00 | 59 | 1006.4 |
| 20260506043219 | 51 | 257 | 1.0 | 3.0 | 0.00 | 0.00 | 0.00 | 58 | 1006.5 |
| 20260506042939 | 51 | 292 | 0.0 | 2.0 | 0.00 | 0.00 | 0.00 | 57 | 1006.5 |
| 20260506041947 | 51 | 292 | 0.0 | 2.0 | 0.00 | 0.00 | 0.00 | 56 | 1006.6 |
| 20260506041441 | 51 | 268 | 0.0 | 0.0 | 0.00 | 0.00 | 0.00 | 57 | 1006.6 |
| 20260506040937 | 51 | 263 | 0.0 | 0.0 | 0.00 | 0.00 | 0.00 | 57 | 1006.6 |
| 20260506040424 | 51 | 255 | 0.0 | 0.0 | 0.00 | 0.00 | 0.00 | 57 | 1006.7 |
| 20260506040152 | 51 | 281 | 0.0 | 2.0 | 0.00 | 0.00 | 0.00 | 57 | 1006.7 |
| 20260506035419 | 51 | 281 | 1.0 | 2.0 | 0.00 | 0.00 | 0.00 | 58 | 1006.7 |
| 20260506034911 | 51 | 282 | 1.0 | 3.0 | 0.00 | 0.00 | 0.00 | 56 | 1006.6 |
| 20260506034406 | 51 | 290 | 1.0 | 3.0 | 0.00 | 0.00 | 0.00 | 55 | 1006.6 |
| 20260506033856 | 51 | 290 | 1.0 | 2.0 | 0.00 | 0.00 | 0.00 | 56 | 1006.6 |
| 20260506033353 | 51 | 291 | 1.0 | 3.0 | 0.00 | 0.00 | 0.00 | 54 | 1006.5 |
| 20260506032848 | 51 | 293 | 0.0 | 3.0 | 0.00 | 0.00 | 0.00 | 55 | 1006.5 |
| 20260506032609 | 51 | 277 | 0.0 | 0.0 | 0.00 | 0.00 | 0.00 | 56 | 1006.5 |
| 20260506031836 | 51 | 277 | 0.0 | 0.0 | 0.00 | 0.00 | 0.00 | 54 | 1006.5 |
| 20260506031329 | 51 | 277 | 0.0 | 0.0 | 0.00 | 0.00 | 0.00 | 54 | 1006.5 |
| 20260506031050 | 51 | 277 | 0.0 | 0.0 | 0.00 | 0.00 | 0.00 | 55 | 1006.5 |
| 20260506030313 | 51 | 277 | 0.0 | 0.0 | 0.00 | 0.00 | 0.00 | 54 | 1006.1 |
| 20260506025812 | 51 | 277 | 0.0 | 0.0 | 0.00 | 0.00 | 0.00 | 53 | 1006.1 |
| 20260506025306 | 52 | 277 | 0.0 | 0.0 | 0.00 | 0.00 | 0.00 | 53 | 1006.1 |
| 20260506024759 | 52 | 277 | 0.0 | 2.0 | 0.00 | 0.00 | 0.00 | 53 | 1006.0 |
| 20260506024515 | 52 | 277 | 1.0 | 3.0 | 0.00 | 0.00 | 0.00 | 52 | 1006.0 |
| 20260506023744 | 52 | 277 | 1.0 | 3.0 | 0.00 | 0.00 | 0.00 | 52 | 1006.0 |
| 20260506023231 | 52 | 277 | 1.0 | 4.0 | 0.00 | 0.00 | 0.00 | 52 | 1006.0 |
| 20260506022731 | 52 | 277 | 1.0 | 4.0 | 0.00 | 0.00 | 0.00 | 52 | 1006.0 |
| 20260506022226 | 52 | 279 | 0.0 | 3.0 | 0.00 | 0.00 | 0.00 | 52 | 1006.0 |
| 20260506021718 | 52 | 279 | 0.0 | 3.0 | 0.00 | 0.00 | 0.00 | 52 | 1005.8 |
| 20260506021214 | 52 | 284 | 0.0 | 2.0 | 0.00 | 0.00 | 0.00 | 51 | 1005.8 |
| 20260506020700 | 52 | 292 | 1.0 | 3.0 | 0.00 | 0.00 | 0.00 | 52 | 1005.8 |
| 20260506020202 | 52 | 292 | 1.0 | 3.0 | 0.00 | 0.00 | 0.00 | 51 | 1005.7 |
| 20260506015655 | 52 | 292 | 0.0 | 0.0 | 0.00 | 0.00 | 0.00 | 51 | 1005.7 |
| 20260506015149 | 52 | 292 | 0.0 | 0.0 | 0.00 | 0.00 | 0.00 | 51 | 1005.7 |
| 20260506014644 | 53 | 292 | 0.0 | 0.0 | 0.00 | 0.00 | 0.00 | 51 | 1005.5 |
| 20260506014132 | 53 | 292 | 0.0 | 3.0 | 0.00 | 0.00 | 0.00 | 51 | 1005.5 |
| 20260506013849 | 53 | 292 | 1.0 | 3.0 | 0.00 | 0.00 | 0.00 | 50 | 1005.5 |
| 20260506013116 | 53 | 321 | 1.0 | 3.0 | 0.00 | 0.00 | 0.00 | 50 | 1005.2 |
| 20260506012830 | 53 | 298 | 1.0 | 3.0 | 0.00 | 0.00 | 0.00 | 50 | 1005.2 |
| 20260506012106 | 53 | 298 | 0.0 | 2.0 | 0.00 | 0.00 | 0.00 | 50 | 1005.2 |
| 20260506011827 | 53 | 297 | 0.0 | 4.0 | 0.00 | 0.00 | 0.00 | 49 | 1005.2 |
| 20260506011106 | 53 | 297 | 1.0 | 4.0 | 0.00 | 0.00 | 0.00 | 50 | 1005.2 |
| 20260506010605 | 53 | 284 | 1.0 | 4.0 | 0.00 | 0.00 | 0.00 | 49 | 1005.2 |
| 20260506010104 | 53 | 275 | 0.0 | 4.0 | 0.00 | 0.00 | 0.00 | 49 | 1005.0 |
| 20260506010048 | 53 | 287 | 0.0 | 4.0 | 0.00 | 0.00 | 0.00 | 48 | 1005.0 |
| 20260506005103 | 53 | 288 | 0.0 | 2.0 | 0.00 | 0.00 | 0.00 | 48 | 1005.0 |
| 20260506004604 | 53 | 288 | 1.0 | 3.0 | 0.00 | 0.00 | 0.00 | 48 | 1005.0 |
| 20260506004103 | 53 | 292 | 1.0 | 4.0 | 0.00 | 0.00 | 0.00 | 46 | 1005.0 |
| 20260506003555 | 53 | 296 | 1.0 | 4.0 | 0.00 | 0.00 | 0.00 | 47 | 1005.0 |
| 20260506003051 | 54 | 257 | 1.0 | 3.0 | 0.00 | 0.00 | 0.00 | 46 | 1004.7 |
| 20260506002541 | 54 | 258 | 1.0 | 4.0 | 0.00 | 0.00 | 0.00 | 45 | 1004.7 |
| 20260506002039 | 54 | 258 | 1.0 | 4.0 | 0.00 | 0.00 | 0.00 | 45 | 1004.7 |
| 20260506001532 | 54 | 259 | 2.0 | 4.0 | 0.00 | 0.00 | 0.00 | 45 | 1004.6 |
| 20260506001027 | 54 | 281 | 1.0 | 4.0 | 0.00 | 0.00 | 0.00 | 44 | 1004.6 |
| 20260506000520 | 54 | 340 | 1.0 | 4.0 | 0.00 | 0.00 | 0.00 | 45 | 1004.6 |
| 20260506000014 | 54 | 298 | 1.0 | 5.0 | 0.00 | 0.00 | 0.00 | 44 | 1004.5 |
| 20260505235507 | 54 | 310 | 1.0 | 5.0 | 0.00 | 0.00 | 0.00 | 44 | 1004.5 |
| 20260505234956 | 54 | 355 | 2.0 | 6.0 | 0.00 | 0.00 | 0.00 | 44 | 1004.5 |
| 20260505234455 | 54 | 328 | 3.0 | 6.0 | 0.00 | 0.00 | 0.00 | 43 | 1004.9 |
| 20260505233950 | 54 | 313 | 2.0 | 6.0 | 0.00 | 0.00 | 0.00 | 42 | 1004.9 |
| 20260505233444 | 54 | 332 | 2.0 | 6.0 | 0.00 | 0.00 | 0.00 | 42 | 1004.7 |
| 20260505232939 | 54 | 288 | 3.0 | 6.0 | 0.00 | 0.00 | 0.00 | 42 | 1004.7 |
| 20260505232428 | 54 | 294 | 2.0 | 6.0 | 0.00 | 0.00 | 0.00 | 41 | 1004.7 |
| 20260505231925 | 54 | 290 | 3.0 | 8.0 | 0.00 | 0.00 | 0.00 | 41 | 1004.9 |
| 20260505231419 | 54 | 314 | 3.0 | 10.0 | 0.00 | 0.00 | 0.00 | 41 | 1004.9 |
| 20260505231135 | 55 | 298 | 3.0 | 10.0 | 0.00 | 0.00 | 0.00 | 39 | 1004.9 |
| 20260505230407 | 55 | 293 | 3.0 | 8.0 | 0.00 | 0.00 | 0.00 | 40 | 1005.0 |
| 20260505225901 | 55 | 342 | 3.0 | 8.0 | 0.00 | 0.00 | 0.00 | 40 | 1005.0 |
| 20260505225356 | 55 | 254 | 3.0 | 9.0 | 0.00 | 0.00 | 0.00 | 39 | 1005.0 |
| 20260505224845 | 55 | 257 | 3.0 | 10.0 | 0.00 | 0.00 | 0.00 | 41 | 1005.2 |
| 20260505224343 | 55 | 340 | 3.0 | 10.0 | 0.00 | 0.00 | 0.00 | 41 | 1005.2 |
| 20260505223839 | 55 | 316 | 3.0 | 8.0 | 0.00 | 0.00 | 0.00 | 40 | 1005.2 |
| 20260505223550 | 54 | 273 | 4.0 | 8.0 | 0.00 | 0.00 | 0.00 | 40 | 1005.1 |
| 20260505222825 | 54 | 284 | 4.0 | 9.0 | 0.00 | 0.00 | 0.00 | 40 | 1005.1 |
| 20260505222315 | 55 | 299 | 3.0 | 7.0 | 0.00 | 0.00 | 0.00 | 41 | 1005.1 |
| 20260505221813 | 54 | 291 | 3.0 | 7.0 | 0.00 | 0.00 | 0.00 | 42 | 1005.1 |
| 20260505221306 | 54 | 292 | 3.0 | 6.0 | 0.00 | 0.00 | 0.00 | 44 | 1005.1 |
| 20260505220800 | 54 | 268 | 3.0 | 7.0 | 0.00 | 0.00 | 0.00 | 42 | 1005.1 |
| 20260505220517 | 54 | 269 | 4.0 | 7.0 | 0.00 | 0.00 | 0.00 | 42 | 1005.2 |
| 20260505220005 | 54 | 250 | 4.0 | 8.0 | 0.00 | 0.00 | 0.00 | 41 | 1005.2 |
| 20260505215244 | 54 | 281 | 4.0 | 9.0 | 0.00 | 0.00 | 0.00 | 42 | 1005.2 |
| 20260505214738 | 54 | 230 | 4.0 | 9.0 | 0.00 | 0.00 | 0.00 | 41 | 1005.5 |
| 20260505214716 | 54 | 274 | 3.0 | 9.0 | 0.00 | 0.00 | 0.00 | 42 | 1005.5 |
| 20260505213727 | 54 | 292 | 3.0 | 9.0 | 0.00 | 0.00 | 0.00 | 41 | 1005.5 |
| 20260505213218 | 54 | 328 | 4.0 | 9.0 | 0.00 | 0.00 | 0.00 | 42 | 1005.4 |
| 20260505212713 | 54 | 273 | 3.0 | 7.0 | 0.00 | 0.00 | 0.00 | 42 | 1005.4 |
| 20260505212202 | 54 | 271 | 3.0 | 6.0 | 0.00 | 0.00 | 0.00 | 41 | 1005.4 |
| 20260505211701 | 54 | 265 | 4.0 | 9.0 | 0.00 | 0.00 | 0.00 | 41 | 1005.4 |
| 20260505211156 | 54 | 226 | 4.0 | 9.0 | 0.00 | 0.00 | 0.00 | 42 | 1005.4 |
| 20260505210656 | 54 | 236 | 4.0 | 12.0 | 0.00 | 0.00 | 0.00 | 43 | 1005.4 |
| 20260505210157 | 54 | 301 | 5.0 | 12.0 | 0.00 | 0.00 | 0.00 | 43 | 1005.5 |
| 20260505205656 | 54 | 280 | 4.0 | 9.0 | 0.00 | 0.00 | 0.00 | 45 | 1005.5 |
| 20260505205157 | 54 | 306 | 3.0 | 7.0 | 0.00 | 0.00 | 0.00 | 48 | 1005.5 |
| 20260505204918 | 54 | 287 | 3.0 | 7.0 | 0.00 | 0.00 | 0.00 | 47 | 1005.6 |
| 20260505204156 | 54 | 242 | 3.0 | 6.0 | 0.00 | 0.00 | 0.00 | 48 | 1005.6 |
| 20260505203659 | 54 | 264 | 3.0 | 9.0 | 0.00 | 0.00 | 0.00 | 47 | 1005.6 |
| 20260505203159 | 54 | 250 | 4.0 | 10.0 | 0.00 | 0.00 | 0.00 | 47 | 1005.9 |
| 20260505202654 | 54 | 273 | 4.0 | 10.0 | 0.00 | 0.00 | 0.00 | 47 | 1005.9 |
| 20260505202407 | 54 | 281 | 3.0 | 10.0 | 0.00 | 0.00 | 0.00 | 47 | 1005.9 |
| 20260505201850 | 54 | 286 | 4.0 | 10.0 | 0.00 | 0.00 | 0.00 | 45 | 1005.7 |
| 20260505201127 | 54 | 277 | 4.0 | 10.0 | 0.00 | 0.00 | 0.00 | 46 | 1005.7 |
| 20260505200620 | 54 | 301 | 5.0 | 11.0 | 0.00 | 0.00 | 0.00 | 46 | 1005.7 |
| 20260505200114 | 54 | 340 | 4.0 | 11.0 | 0.00 | 0.00 | 0.00 | 45 | 1005.5 |
| 20260505195607 | 55 | 302 | 3.0 | 9.0 | 0.00 | 0.00 | 0.00 | 46 | 1005.5 |
| 20260505195101 | 54 | 277 | 5.0 | 13.0 | 0.00 | 0.00 | 0.00 | 46 | 1005.5 |
| 20260505194556 | 54 | 279 | 5.0 | 13.0 | 0.00 | 0.00 | 0.00 | 45 | 1005.5 |
| 20260505194045 | 55 | 219 | 4.0 | 11.0 | 0.00 | 0.00 | 0.00 | 46 | 1005.5 |
| 20260505193543 | 55 | 259 | 3.0 | 8.0 | 0.00 | 0.00 | 0.00 | 45 | 1005.5 |
| 20260505193037 | 55 | 248 | 3.0 | 10.0 | 0.00 | 0.00 | 0.00 | 45 | 1005.7 |
| 20260505192531 | 55 | 288 | 4.0 | 10.0 | 0.00 | 0.00 | 0.00 | 45 | 1005.7 |
| 20260505192247 | 55 | 223 | 3.0 | 9.0 | 0.00 | 0.00 | 0.00 | 45 | 1005.7 |
| 20260505191520 | 55 | 10 | 3.0 | 7.0 | 0.00 | 0.00 | 0.00 | 47 | 1005.7 |
| 20260505191245 | 55 | 215 | 4.0 | 8.0 | 0.00 | 0.00 | 0.00 | 47 | 1005.7 |
| 20260505190508 | 55 | 269 | 4.0 | 9.0 | 0.00 | 0.00 | 0.00 | 51 | 1005.7 |
| 20260505190000 | 55 | 290 | 4.0 | 9.0 | 0.00 | 0.00 | 0.00 | 49 | 1005.8 |
| 20260505185454 | 55 | 237 | 3.0 | 7.0 | 0.00 | 0.00 | 0.00 | 51 | 1005.8 |
| 20260505184948 | 54 | 272 | 4.0 | 7.0 | 0.00 | 0.00 | 0.00 | 50 | 1006.0 |
| 20260505184443 | 54 | 286 | 4.0 | 7.0 | 0.00 | 0.00 | 0.00 | 52 | 1006.0 |
| 20260505183932 | 54 | 285 | 4.0 | 7.0 | 0.00 | 0.00 | 0.00 | 53 | 1006.0 |
| 20260505183422 | 54 | 235 | 4.0 | 7.0 | 0.00 | 0.00 | 0.00 | 54 | 1006.0 |
| 20260505182920 | 54 | 237 | 3.0 | 7.0 | 0.00 | 0.00 | 0.00 | 57 | 1006.0 |
| 20260505182416 | 54 | 288 | 4.0 | 9.0 | 0.00 | 0.00 | 0.00 | 57 | 1006.0 |
| 20260505181910 | 53 | 320 | 5.0 | 9.0 | 0.00 | 0.00 | 0.00 | 57 | 1005.9 |
| 20260505181404 | 54 | 283 | 4.0 | 8.0 | 0.00 | 0.00 | 0.00 | 57 | 1005.9 |
| 20260505180853 | 54 | 259 | 4.0 | 8.0 | 0.00 | 0.00 | 0.00 | 56 | 1005.9 |
| 20260505180352 | 54 | 250 | 4.0 | 9.0 | 0.00 | 0.00 | 0.00 | 57 | 1005.6 |
| 20260505175846 | 54 | 289 | 3.0 | 9.0 | 0.00 | 0.00 | 0.00 | 57 | 1005.6 |
| 20260505175340 | 54 | 229 | 4.0 | 8.0 | 0.00 | 0.00 | 0.00 | 56 | 1005.6 |
| 20260505174834 | 54 | 250 | 4.0 | 12.0 | 0.00 | 0.00 | 0.00 | 56 | 1005.6 |
| 20260505174323 | 54 | 351 | 3.0 | 12.0 | 0.00 | 0.00 | 0.00 | 56 | 1005.6 |
| 20260505173821 | 54 | 316 | 4.0 | 12.0 | 0.00 | 0.00 | 0.00 | 58 | 1005.6 |
| 20260505173316 | 53 | 286 | 4.0 | 12.0 | 0.00 | 0.00 | 0.00 | 58 | 1005.6 |
| 20260505172810 | 54 | 9 | 4.0 | 9.0 | 0.00 | 0.00 | 0.00 | 58 | 1005.6 |
| 20260505172750 | 53 | 271 | 4.0 | 12.0 | 0.00 | 0.00 | 0.00 | 56 | 1005.6 |
| 20260505171756 | 54 | 293 | 4.0 | 11.0 | 0.00 | 0.00 | 0.00 | 56 | 1005.5 |
| 20260505171251 | 54 | 341 | 4.0 | 10.0 | 0.00 | 0.00 | 0.00 | 55 | 1005.5 |
| 20260505170744 | 54 | 295 | 4.0 | 10.0 | 0.00 | 0.00 | 0.00 | 54 | 1005.5 |
| 20260505170229 | 55 | 215 | 5.0 | 10.0 | 0.00 | 0.00 | 0.00 | 53 | 1005.4 |
| 20260505165725 | 55 | 259 | 5.0 | 12.0 | 0.00 | 0.00 | 0.00 | 54 | 1005.4 |
| 20260505165224 | 55 | 235 | 5.0 | 12.0 | 0.00 | 0.00 | 0.00 | 51 | 1005.4 |
| 20260505164727 | 55 | 270 | 5.0 | 11.0 | 0.00 | 0.00 | 0.00 | 52 | 1005.4 |
| 20260505164224 | 56 | 273 | 4.0 | 10.0 | 0.00 | 0.00 | 0.00 | 52 | 1005.4 |
| 20260505163725 | 55 | 288 | 4.0 | 9.0 | 0.00 | 0.00 | 0.00 | 52 | 1005.4 |
| 20260505163222 | 55 | 285 | 4.0 | 9.0 | 0.00 | 0.00 | 0.00 | 53 | 1005.1 |
| 20260505162724 | 55 | 276 | 4.0 | 9.0 | 0.00 | 0.00 | 0.00 | 52 | 1005.1 |
| 20260505162221 | 55 | 303 | 4.0 | 8.0 | 0.00 | 0.00 | 0.00 | 57 | 1005.1 |
| 20260505161947 | 54 | 5 | 3.0 | 8.0 | 0.00 | 0.00 | 0.00 | 58 | 1005.0 |
| 20260505161217 | 53 | 310 | 2.0 | 6.0 | 0.00 | 0.00 | 0.00 | 60 | 1005.0 |
| 20260505160711 | 53 | 355 | 2.0 | 5.0 | 0.00 | 0.00 | 0.00 | 62 | 1005.0 |
| 20260505160206 | 53 | 269 | 3.0 | 7.0 | 0.00 | 0.00 | 0.00 | 63 | 1005.4 |
| 20260505153130 | 51 | 351 | 3.0 | 10.0 | 0.00 | 0.00 | 0.00 | 67 | 1005.1 |
| 20260505152619 | 50 | 348 | 3.0 | 7.0 | 0.00 | 0.00 | 0.00 | 71 | 1005.1 |
| 20260505152115 | 50 | 34 | 2.0 | 7.0 | 0.00 | 0.00 | 0.00 | 74 | 1005.1 |
| 20260505151611 | 49 | 31 | 1.0 | 4.0 | 0.00 | 0.00 | 0.00 | 79 | 1005.4 |
| 20260505151104 | 48 | 310 | 2.0 | 4.0 | 0.00 | 0.00 | 0.00 | 77 | 1005.4 |
| 20260505150559 | 48 | 244 | 2.0 | 4.0 | 0.00 | 0.00 | 0.00 | 81 | 1005.4 |
| 20260505140445 | 45 | 321 | 2.0 | 4.0 | 0.00 | 0.00 | 0.00 | 85 | 1005.9 |
| 20260505124812 | 47 | 5 | 4.0 | 10.0 | 0.00 | 0.00 | 0.00 | 76 | 1004.4 |
| 20260505124300 | 48 | 336 | 4.0 | 11.0 | 0.00 | 0.00 | 0.00 | 75 | 1004.4 |
| 20260505123747 | 48 | 11 | 5.0 | 11.0 | 0.00 | 0.00 | 0.00 | 73 | 1004.4 |
| 20260505123510 | 49 | 12 | 5.0 | 13.0 | 0.00 | 0.00 | 0.00 | 71 | 1004.6 |
| 20260505122743 | 50 | 9 | 5.0 | 13.0 | 0.00 | 0.00 | 0.00 | 68 | 1004.6 |
| 20260505122512 | 50 | 282 | 5.0 | 12.0 | 0.00 | 0.00 | 0.00 | 66 | 1004.6 |
| 20260505121742 | 51 | 13 | 3.0 | 9.0 | 0.00 | 0.00 | 0.00 | 65 | 1004.6 |
| 20260505121243 | 51 | 325 | 3.0 | 9.0 | 0.00 | 0.00 | 0.00 | 65 | 1004.6 |
| 20260505120742 | 51 | 328 | 3.0 | 8.0 | 0.00 | 0.00 | 0.00 | 65 | 1004.6 |
| 20260505120243 | 51 | 348 | 3.0 | 7.0 | 0.00 | 0.00 | 0.00 | 64 | 1004.4 |
| 20260505115743 | 51 | 349 | 3.0 | 7.0 | 0.00 | 0.00 | 0.00 | 64 | 1004.4 |
| 20260505115241 | 51 | 100 | 3.0 | 10.0 | 0.00 | 0.00 | 0.00 | 65 | 1004.4 |
| 20260505114741 | 51 | 327 | 3.0 | 10.0 | 0.00 | 0.00 | 0.00 | 64 | 1003.4 |
| 20260505114236 | 51 | 350 | 2.0 | 6.0 | 0.00 | 0.00 | 0.00 | 65 | 1003.4 |
| 20260505113728 | 51 | 350 | 3.0 | 7.0 | 0.00 | 0.00 | 0.00 | 65 | 1003.4 |
| 20260505113222 | 52 | 0 | 3.0 | 7.0 | 0.00 | 0.00 | 0.00 | 64 | 1003.3 |
| 20260505112928 | 52 | 355 | 3.0 | 7.0 | 0.00 | 0.00 | 0.00 | 64 | 1003.3 |
| 20260505112437 | 51 | 355 | 3.0 | 7.0 | 0.00 | 0.00 | 0.00 | 65 | 1003.3 |
| 20260505111705 | 51 | 342 | 2.0 | 7.0 | 0.00 | 0.00 | 0.00 | 67 | 1002.8 |
| 20260505111158 | 51 | 312 | 2.0 | 6.0 | 0.00 | 0.00 | 0.00 | 69 | 1002.8 |
| 20260505110655 | 51 | 48 | 2.0 | 6.0 | 0.00 | 0.00 | 0.00 | 69 | 1002.8 |
| 20260505110628 | 51 | 5 | 2.0 | 6.0 | 0.00 | 0.00 | 0.00 | 68 | 1002.2 |
| 20260505102058 | 53 | 228 | 3.0 | 5.0 | 0.00 | 0.00 | 0.00 | 68 | 1002.5 |
| 20260505101553 | 53 | 261 | 2.0 | 5.0 | 0.00 | 0.00 | 0.00 | 68 | 1002.3 |
| 20260505101045 | 53 | 240 | 1.0 | 3.0 | 0.00 | 0.00 | 0.00 | 68 | 1002.3 |
| 20260505100540 | 53 | 240 | 1.0 | 3.0 | 0.00 | 0.00 | 0.00 | 68 | 1002.3 |
| 20260505100030 | 53 | 240 | 1.0 | 3.0 | 0.00 | 0.00 | 0.00 | 68 | 1002.3 |
| 20260505095528 | 53 | 239 | 1.0 | 3.0 | 0.00 | 0.00 | 0.00 | 67 | 1002.3 |
| 20260505095024 | 53 | 239 | 1.0 | 3.0 | 0.00 | 0.00 | 0.00 | 67 | 1002.3 |
| 20260505094516 | 53 | 234 | 1.0 | 3.0 | 0.00 | 0.00 | 0.00 | 67 | 1002.3 |
| 20260505094010 | 54 | 234 | 2.0 | 4.0 | 0.00 | 0.00 | 0.00 | 66 | 1002.3 |
| 20260505093730 | 54 | 227 | 2.0 | 6.0 | 0.00 | 0.00 | 0.00 | 66 | 1002.3 |
| 20260505092959 | 54 | 280 | 3.0 | 6.0 | 0.00 | 0.00 | 0.00 | 66 | 1002.4 |
| 20260505092453 | 54 | 223 | 2.0 | 5.0 | 0.00 | 0.00 | 0.00 | 66 | 1002.4 |
| 20260505091945 | 54 | 257 | 2.0 | 5.0 | 0.00 | 0.00 | 0.00 | 66 | 1002.0 |
| 20260505091441 | 54 | 236 | 2.0 | 5.0 | 0.00 | 0.00 | 0.00 | 66 | 1002.0 |
| 20260505090935 | 53 | 227 | 2.0 | 5.0 | 0.00 | 0.00 | 0.00 | 67 | 1002.0 |
| 20260505090429 | 53 | 226 | 2.0 | 4.0 | 0.00 | 0.00 | 0.00 | 67 | 1001.6 |
| 20260505085919 | 53 | 245 | 2.0 | 4.0 | 0.00 | 0.00 | 0.00 | 69 | 1001.6 |
| 20260505085416 | 53 | 230 | 2.0 | 4.0 | 0.00 | 0.00 | 0.00 | 70 | 1001.6 |
| 20260505085135 | 53 | 230 | 2.0 | 4.0 | 0.00 | 0.00 | 0.00 | 70 | 1000.9 |
| 20260505084403 | 53 | 239 | 2.0 | 4.0 | 0.00 | 0.00 | 0.00 | 69 | 1000.9 |
| 20260505083858 | 54 | 223 | 1.0 | 4.0 | 0.00 | 0.00 | 0.00 | 68 | 1000.9 |
| 20260505083351 | 54 | 218 | 0.0 | 1.0 | 0.00 | 0.00 | 0.00 | 66 | 1000.9 |
| 20260505082839 | 54 | 218 | 1.0 | 2.0 | 0.00 | 0.00 | 0.00 | 66 | 1000.9 |
| 20260505082334 | 54 | 218 | 2.0 | 4.0 | 0.00 | 0.00 | 0.00 | 64 | 1000.9 |
| 20260505082326 | 54 | 218 | 2.0 | 4.0 | 0.00 | 0.00 | 0.00 | 65 | 1000.6 |
| 20260505081335 | 54 | 247 | 2.0 | 4.0 | 0.00 | 0.00 | 0.00 | 64 | 1000.6 |
| 20260505080833 | 54 | 215 | 2.0 | 5.0 | 0.00 | 0.00 | 0.00 | 63 | 1000.6 |
| 20260505080333 | 55 | 222 | 1.0 | 5.0 | 0.00 | 0.00 | 0.00 | 63 | 1000.1 |
| 20260505075834 | 55 | 259 | 1.0 | 2.0 | 0.00 | 0.00 | 0.00 | 63 | 1000.1 |
| 20260505075336 | 55 | 259 | 1.0 | 3.0 | 0.00 | 0.00 | 0.00 | 63 | 1000.1 |
| 20260505074835 | 55 | 273 | 1.0 | 3.0 | 0.00 | 0.00 | 0.00 | 63 | 999.7 |
| 20260505074335 | 55 | 277 | 0.0 | 3.0 | 0.00 | 0.00 | 0.00 | 63 | 999.7 |
| 20260505073830 | 55 | 278 | 0.0 | 4.0 | 0.00 | 0.00 | 0.00 | 62 | 999.7 |
| 20260505073322 | 55 | 286 | 0.0 | 4.0 | 0.00 | 0.00 | 0.00 | 61 | 999.6 |
| 20260505072816 | 55 | 284 | 0.0 | 3.0 | 0.00 | 0.00 | 0.00 | 59 | 999.6 |
| 20260505072311 | 55 | 284 | 0.0 | 3.0 | 0.00 | 0.00 | 0.00 | 59 | 999.6 |
| 20260505071801 | 56 | 281 | 0.0 | 3.0 | 0.00 | 0.00 | 0.00 | 59 | 999.3 |
| 20260505071744 | 56 | 284 | 0.0 | 3.0 | 0.00 | 0.00 | 0.00 | 59 | 999.3 |
| 20260505070752 | 56 | 286 | 0.0 | 3.0 | 0.00 | 0.00 | 0.00 | 58 | 999.3 |
| 20260505070247 | 56 | 296 | 1.0 | 4.0 | 0.00 | 0.00 | 0.00 | 58 | 999.3 |
| 20260505065740 | 56 | 295 | 2.0 | 6.0 | 0.00 | 0.00 | 0.00 | 59 | 999.3 |
| 20260505065230 | 57 | 276 | 3.0 | 7.0 | 0.00 | 0.00 | 0.00 | 58 | 999.3 |
| 20260505064945 | 57 | 286 | 3.0 | 8.0 | 0.00 | 0.00 | 0.00 | 58 | 998.8 |
| 20260505064443 | 57 | 300 | 2.0 | 8.0 | 0.00 | 0.00 | 0.00 | 59 | 998.8 |
| 20260505063716 | 57 | 308 | 2.0 | 7.0 | 0.00 | 0.00 | 0.00 | 59 | 998.8 |
| 20260505063212 | 58 | 349 | 3.0 | 8.0 | 0.00 | 0.00 | 0.00 | 60 | 998.6 |
| 20260505062932 | 58 | 290 | 3.0 | 8.0 | 0.00 | 0.00 | 0.00 | 59 | 998.6 |
| 20260505062159 | 58 | 259 | 3.0 | 7.0 | 0.00 | 0.00 | 0.00 | 61 | 998.6 |
| 20260505061646 | 58 | 198 | 3.0 | 8.0 | 0.00 | 0.00 | 0.00 | 61 | 998.6 |
| 20260505061145 | 58 | 257 | 3.0 | 14.0 | 0.00 | 0.00 | 0.00 | 61 | 998.6 |
| 20260505060640 | 58 | 270 | 3.0 | 14.0 | 0.00 | 0.00 | 0.00 | 62 | 998.6 |
| 20260505060350 | 59 | 202 | 4.0 | 9.0 | 0.00 | 0.00 | 0.00 | 64 | 998.6 |
| 20260505055627 | 59 | 333 | 4.0 | 9.0 | 0.00 | 0.00 | 0.00 | 65 | 998.6 |
| 20260505055120 | 59 | 298 | 3.0 | 9.0 | 0.00 | 0.00 | 0.00 | 66 | 998.6 |
| 20260505054620 | 59 | 254 | 4.0 | 12.0 | 0.00 | 0.00 | 0.00 | 68 | 998.6 |
| 20260505054109 | 59 | 281 | 4.0 | 12.0 | 0.00 | 0.00 | 0.00 | 69 | 998.6 |
| 20260505053603 | 59 | 286 | 4.0 | 15.0 | 0.00 | 0.00 | 0.00 | 72 | 998.6 |
| 20260505053057 | 59 | 225 | 4.0 | 15.0 | 0.00 | 0.00 | 0.00 | 75 | 998.7 |